Home   Weather   Fairfield Park   Past weeks
Flag for USA

Past Weather in Fairfield Park, Delaware, USA — Yesterday and Last 2 Weeks

Now
73 °F

Clear.


Feels Like: 73 °F
Forecast: 88 / 73 °F
Wind: 6 mph from North

Location: New Castle County Airport

Current Time: Jul 4, 2020 at 2:54:59 am

Latest Report: Jul 4, 2020 at 1:51 am


Visibility: 10 mi

Pressure: 29.87 "Hg

Humidity: 79%

Dew Point: 66 °F

Location of Fairfield ParkLocation

Past Weather in Fairfield Park — Graph

°F

Fairfield Park Temperature Yesterday

Maximum temperature yesterday: 96 °F (at 1:51 pm)
Minimum temperature yesterday: 72 °F (at 3:51 am)
Average temperature yesterday: 84 °F

High & Low Weather Summary for the Past Weeks

 TemperatureHumidityPressure
High96 °F (Jul 3, 1:51 pm)96% (Jun 22, 6:58 am)30.16 "Hg (Jun 22, 6:58 am)
Low64 °F (Jun 26, 5:51 am)29% (Jul 3, 3:51 pm)29.66 "Hg (Jun 24, 1:51 am)
Average77 °F69%29.90 "Hg
* Reported Jun 19 12:51 am — Jul 4 12:51 am, Fairfield Park. Weather by CustomWeather, © 2020

Note: Actual official high and low records may vary slightly from our data, if they occured in-between our weather recording intervals... More about our weather records

Fairfield Park Weather History for the Previous 24 Hours

Scroll right to see more
 ConditionsComfort  
Time TempWeatherWind HumidityBarometerVisibility
12:51 am
Sat, Jul 4
76 °FClear.5 mph72%29.86 "Hg10 mi
11:51 pm
Fri, Jul 3
78 °FPassing clouds.6 mph64%29.87 "Hg10 mi
11:31 pm79 °FPartly cloudy.6 mph65%29.87 "Hg10 mi
11:10 pm78 °FThundershowers. Passing clouds.5 mph69%29.87 "Hg10 mi
10:51 pm78 °FPassing clouds.6 mph62%29.84 "Hg10 mi
9:51 pm82 °FPassing clouds.10 mph53%29.83 "Hg10 mi
9:12 pm84 °FPassing clouds.16 mph51%29.84 "Hg10 mi
8:51 pm86 °FClear.9 mph48%29.80 "Hg10 mi
7:51 pm91 °FSunny.6 mph41%29.80 "Hg10 mi
6:51 pm93 °FSunny.8 mph36%29.79 "Hg10 mi
5:51 pm94 °FSunny.10 mph33%29.80 "Hg10 mi
4:51 pm95 °FSunny.12 mph31%29.81 "Hg10 mi
3:51 pm96 °FSunny.9 mph29%29.83 "Hg10 mi
2:51 pm96 °FPassing clouds.6 mph30%29.84 "Hg10 mi
1:51 pm96 °FSunny.10 mph30%29.85 "Hg10 mi
12:51 pm95 °FSunny.12 mph32%29.86 "Hg10 mi
11:51 am90 °FSunny.8 mph43%29.87 "Hg10 mi
10:51 am89 °FSunny.8 mph45%29.88 "Hg10 mi
9:51 am88 °FSunny.8 mph45%29.88 "Hg10 mi
8:51 am85 °FSunny.9 mph50%29.88 "Hg10 mi
7:51 am81 °FSunny.6 mph54%29.87 "Hg10 mi
6:51 am76 °FSunny.7 mph64%29.86 "Hg10 mi
5:51 am73 °FSunny.8 mph69%29.85 "Hg10 mi
4:51 am72 °FClear.7 mph71%29.84 "Hg10 mi
3:51 am72 °FClear.9 mph71%29.83 "Hg10 mi
2:51 am73 °FClear.7 mph71%29.84 "Hg10 mi
Weather by CustomWeather, © 2020

See weather overview